Total_Precipitation_Accumulation
2.02 2.12 2.47 2.14 1.99 2.15 2.18 2.22 2.88 2.28 2.01 3.92 2.96 1.97 1.48 1.38 1.51 1.72 1.57 1.16 0.70 0.49 0.55 0.97 0.90 1.04 1.12 0.59 0.42 0.47 0.69 1.20 1.01 0.79 0.57 0.83 1.36 1.43 1.38 2.42 1.71 1.65 1.71 2.47
1.86 2.18 2.31 2.09 2.69 2.59 2.90 3.12 2.79 3.08 1.70 2.19 1.30 1.08 1.35 1.46 1.58 1.59 1.34 1.08 0.60 0.37 0.49 1.01 0.55 0.50 0.44 0.27 0.23 0.31 0.53 1.42 1.10 1.04 1.17 1.03 1.46 1.35 1.27 1.26 1.95 2.07 2.30 2.88
1.96 1.89 1.69 1.91 2.49 2.56 3.31 4.02 4.09 4.23 3.30 1.24 0.68 1.02 1.48 1.34 1.22 1.29 1.05 1.08 0.64 0.61 0.48 0.36 0.52 0.31 0.25 0.31 0.38 0.34 0.52 0.88 1.14 1.06 1.22 1.35 1.29 1.09 1.24 1.55 2.38 1.67 2.19 1.75
2.53 1.91 1.48 1.63 1.90 1.96 2.49 3.63 2.99 1.70 1.69 0.74 0.45 1.16 1.80 1.52 1.48 1.03 1.03 1.34 0.72 0.61 0.78 0.49 0.37 0.22 0.29 0.35 0.56 0.60 0.88 1.04 0.73 0.69 0.44 0.70 1.23 1.19 1.16 1.85 1.65 2.16 1.79 1.30
2.97 2.37 1.85 1.90 2.26 2.77 3.25 3.15 2.15 1.16 0.77 0.38 0.48 1.28 1.76 1.58 1.11 1.29 1.19 1.02 0.50 0.79 1.08 0.80 0.58 0.43 0.49 0.59 0.55 0.68 0.71 1.06 0.64 0.72 0.52 0.84 0.88 0.66 0.92 1.04 1.28 1.48 1.19 1.48
2.85 2.26 2.19 2.59 3.69 4.30 4.13 2.76 1.99 1.88 1.94 1.08 1.04 0.98 1.03 1.14 1.25 1.69 1.01 0.87 1.01 0.78 0.52 0.73 0.72 0.72 0.65 0.77 0.74 0.66 0.80 0.96 1.06 1.33 0.69 0.85 1.13 0.79 0.60 0.77 0.97 1.00 1.17 1.22
2.77 1.90 1.82 2.11 2.58 3.06 3.12 2.67 2.52 3.19 2.86 1.67 1.32 1.16 1.13 1.31 1.39 1.77 1.15 0.94 1.19 0.78 0.52 0.66 0.53 0.39 0.39 0.41 0.47 0.53 0.89 0.82 1.28 1.34 0.72 1.24 0.67 0.46 0.58 0.61 0.78 0.65 0.67 0.60
2.13 1.68 1.76 1.94 2.19 3.02 2.89 2.59 2.88 3.15 2.84 1.67 1.22 1.01 1.09 1.26 1.29 1.45 1.22 0.85 0.81 0.71 0.70 0.72 0.56 0.38 0.36 0.23 0.17 0.27 0.48 0.87 1.50 1.30 0.98 0.65 0.45 0.39 0.40 0.43 0.46 0.47 0.47 0.35
1.76 1.52 1.59 1.94 2.07 2.26 1.91 1.97 2.48 2.97 3.34 2.26 1.45 1.23 1.03 1.29 1.30 1.20 0.88 0.66 0.49 0.55 0.81 0.85 0.81 0.59 0.36 0.40 0.32 0.17 0.29 0.53 1.32 1.20 1.08 0.57 0.28 0.16 0.23 0.51 0.78 0.36 0.32 0.30
1.78 1.66 1.42 1.35 1.41 1.55 1.58 1.58 1.82 2.62 3.25 1.90 1.34 1.24 1.16 1.12 1.37 1.40 0.87 0.64 0.53 0.57 0.89 0.80 0.49 0.40 0.31 0.37 0.28 0.22 0.39 0.72 1.28 1.00 1.44 0.63 0.29 0.10 0.19 0.57 0.59 0.23 0.26 0.33
1.74 1.63 1.41 1.27 1.27 1.58 1.44 1.30 1.60 2.18 2.82 1.95 1.13 1.04 1.11 0.92 0.99 1.64 1.26 0.89 0.78 0.84 1.23 1.01 0.61 0.58 0.43 0.36 0.33 0.25 0.30 0.50 0.64 0.74 1.09 1.01 0.27 0.13 0.37 0.50 0.26 0.17 0.14 0.17
1.72 1.74 1.70 1.78 1.70 1.78 1.71 1.50 1.40 1.60 2.48 1.96 0.86 0.75 0.73 0.75 0.87 1.39 1.35 1.06 0.86 0.92 1.21 1.04 0.72 0.56 0.43 0.45 0.58 0.30 0.39 0.48 0.51 0.61 0.79 0.75 0.49 0.56 0.53 0.42 0.31 0.23 0.20 0.12
1.43 1.54 1.58 1.37 1.25 1.45 1.79 1.36 1.37 1.50 1.95 1.47 0.85 0.61 0.44 0.31 0.53 1.05 1.69 1.34 1.28 1.37 1.23 1.29 0.94 0.79 0.57 0.40 0.43 0.42 0.37 0.38 0.49 0.53 0.56 0.42 0.48 0.36 0.39 0.42 0.43 0.27 0.12 0.08
1.11 1.24 1.26 1.07 0.93 1.11 1.35 0.74 0.80 0.97 1.09 1.02 0.71 0.33 0.30 0.30 0.39 0.66 1.15 1.44 1.17 1.29 1.32 2.18 1.84 1.25 0.61 0.54 0.48 0.32 0.36 0.40 0.58 0.78 0.64 0.58 0.61 0.46 0.40 0.34 0.20 0.09 0.06 0.05
1.15 1.10 0.94 0.78 0.99 1.11 0.87 0.53 0.87 1.07 1.48 1.65 0.64 0.30 0.24 0.13 0.31 0.59 0.86 1.44 1.50 1.71 2.12 2.21 1.91 1.37 1.10 0.99 0.88 1.07 0.88 0.88 0.90 1.00 0.88 0.87 0.83 0.72 0.54 0.35 0.29 0.26 0.20 0.17
0.90 0.89 0.78 0.87 1.24 1.56 0.93 0.86 0.76 0.78 1.12 2.25 0.94 0.34 0.12 0.08 0.33 0.57 0.73 0.92 1.33 1.98 2.23 1.98 1.87 1.61 1.63 1.87 1.33 1.19 0.92 0.93 1.11 1.18 1.17 1.17 1.18 0.87 0.78 0.68 0.61 0.57 0.45 0.47
1.02 1.13 1.10 0.96 1.33 1.20 0.98 0.72 1.12 1.27 1.59 1.95 0.98 0.49 0.16 0.11 0.50 0.87 0.92 0.81 1.56 2.12 2.55 2.05 1.49 1.29 1.42 2.01 1.41 1.09 0.92 0.99 1.14 1.10 0.80 0.90 0.84 1.14 1.08 1.03 1.16 1.00 0.89 0.86
1.40 1.55 1.65 1.69 1.86 1.65 1.07 0.91 1.09 1.23 2.04 2.06 1.55 0.52 0.21 0.19 0.77 1.33 1.21 1.38 1.59 1.68 1.91 1.59 1.16 1.10 1.36 2.02 1.56 1.01 0.82 0.64 0.60 0.76 0.80 1.14 1.09 0.89 0.86 0.81 0.75 0.61 0.62 0.61
1.94 2.13 2.07 2.08 1.47 0.72 0.50 0.73 1.13 1.34 2.02 2.81 1.64 0.73 0.48 0.27 0.71 1.06 1.34 1.20 1.43 1.19 1.09 1.06 0.91 1.02 1.52 1.63 1.12 0.85 0.79 0.69 0.88 0.73 0.63 0.60 0.52 0.53 0.49 0.44 0.41 0.38 0.42 0.42
2.66 2.34 1.87 1.56 0.81 0.78 1.11 1.69 2.16 2.93 2.34 1.84 1.41 0.43 0.57 0.42 0.60 1.10 1.63 1.96 1.53 1.27 0.97 0.77 1.22 1.69 1.72 1.37 1.04 0.90 0.78 0.74 0.65 0.54 0.43 0.33 0.30 0.31 0.28 0.26 0.27 0.31 0.33 0.31
3.00 2.45 1.80 1.56 1.57 1.73 1.99 2.02 1.87 1.59 1.82 1.04 0.55 0.27 0.55 0.51 1.20 1.52 1.79 2.20 1.54 1.34 0.94 0.99 1.24 1.48 1.32 0.92 0.66 0.59 0.51 0.38 0.29 0.31 0.32 0.27 0.27 0.25 0.20 0.16 0.11 0.13 0.14 0.18
2.00 1.77 2.24 2.44 2.39 2.38 1.92 1.49 1.04 1.25 0.94 0.69 0.57 0.39 0.42 0.52 0.87 1.80 2.19 1.88 1.69 1.32 0.86 1.19 1.08 1.31 0.85 0.49 0.50 0.41 0.22 0.17 0.14 0.12 0.15 0.10 0.10 0.10 0.13 0.13 0.10 0.06 0.06 0.06
3.13 4.27 4.40 3.11 2.56 1.89 1.33 0.86 0.97 0.98 0.70 0.73 0.80 0.72 0.57 0.82 1.19 1.95 2.01 1.88 1.41 0.82 0.96 0.88 0.91 0.78 0.46 0.34 0.25 0.16 0.12 0.09 0.08 0.07 0.06 0.06 0.07 0.07 0.12 0.16 0.09 0.08 0.08 0.05
5.73 5.59 4.53 2.16 1.53 0.70 0.85 0.72 0.64 0.67 0.69 0.75 0.86 0.99 0.98 1.03 1.63 1.74 1.61 1.40 1.25 1.11 0.77 0.80 0.80 0.50 0.35 0.26 0.21 0.20 0.25 0.33 0.33 0.24 0.17 0.15 0.14 0.16 0.11 0.11 0.13 0.15 0.14 0.07
5.96 4.37 2.34 1.04 0.46 0.29 0.43 0.32 0.32 0.42 0.50 0.62 0.79 1.00 0.92 1.08 1.49 1.14 1.01 1.13 0.83 0.60 0.76 0.87 0.60 0.41 0.28 0.28 0.31 0.33 0.35 0.47 0.58 0.59 0.56 0.52 0.44 0.42 0.33 0.16 0.14 0.19 0.18 0.13
5.47 3.55 1.38 0.41 0.22 0.12 0.16 0.23 0.31 0.40 0.60 0.69 0.88 1.03 1.29 1.20 1.06 1.08 0.82 0.75 0.66 0.76 0.83 0.76 0.55 0.49 0.42 0.39 0.32 0.28 0.26 0.23 0.23 0.21 0.22 0.25 0.27 0.33 0.33 0.25 0.20 0.24 0.27 0.25
5.20 1.94 0.40 0.16 0.17 0.20 0.18 0.24 0.27 0.29 0.55 0.73 1.04 1.50 1.08 1.12 1.29 0.91 0.79 1.05 0.91 0.64 0.38 0.39 0.45 0.60 0.59 0.56 0.44 0.36 0.29 0.24 0.19 0.18 0.15 0.16 0.13 0.14 0.14 0.12 0.10 0.14 0.26 0.36